This is the latest recevied weather packets stored in our database for station/object KA8DUX-2. If no packets are shown the sender has not sent any weather packets the latest 1 day(s).
| Time | Temp. | Humidity | Pressure | Rain* | Wind** | Luminosity | Snow |
|---|---|---|---|---|---|---|---|
| 1778087132 | 12.22° C | 41% | 1011.9 hPa | 0 mm | - | 170 W/m² | - |
| 1778086824 | 12.78° C | 40% | 1012 hPa | 0 mm | - | 121 W/m² | - |
| 1778085915 | 12.22° C | 42% | 1012 hPa | 0 mm | - | 742 W/m² | - |
| 1778084701 | 13.33° C | 40% | 1012 hPa | 0 mm | - | 382 W/m² | - |
| 1778084095 | 12.78° C | 41% | 1012.2 hPa | 0 mm | - | 471 W/m² | - |
| 1778083787 | 12.22° C | 40% | 1012.1 hPa | 0 mm | - | 702 W/m² | - |
| 1778079646 | 12.78° C | 44% | 1012.2 hPa | 0 mm | - | 625 W/m² | - |
| 1778079040 | 11.67° C | 42% | 1012 hPa | 0 mm | - | 649 W/m² | - |
| 1778078434 | 11.67° C | 43% | 1012.1 hPa | 0 mm | - | 606 W/m² | - |
| 1778077830 | 10° C | 48% | 1011.9 hPa | 0 mm | - | 575 W/m² | - |
| 1778076923 | 10° C | 45% | 1011.9 hPa | 0 mm | - | 540 W/m² | - |
| 1778076621 | 10° C | 49% | 1011.9 hPa | 0 mm | - | 480 W/m² | - |
| 1778076318 | 10.56° C | 49% | 1011.6 hPa | 0 mm | - | 422 W/m² | - |
| 1778074498 | 8.89° C | 57% | 1011.2 hPa | 0 mm | - | 359 W/m² | - |
| 1778073892 | 8.33° C | 61% | 1011.4 hPa | 0 mm | - | 281 W/m² | - |
| 1778072377 | 7.22° C | 66% | 1011.4 hPa | 0 mm | - | 139 W/m² | - |
| 1778071773 | 6.11° C | 68% | 1011.5 hPa | 0 mm | - | 161 W/m² | - |
| 1778071470 | 6.11° C | 69% | 1011.6 hPa | 0 mm | - | 118 W/m² | - |
| 1778071168 | 5.56° C | 71% | 1011.6 hPa | 0 mm | - | 54 W/m² | - |
| 1778070866 | 5.56° C | 71% | 1011.2 hPa | 0 mm | - | 67 W/m² | - |
| 1778070563 | 5.56° C | 72% | 1011.4 hPa | 0 mm | - | 52 W/m² | - |
| 1778069655 | 5° C | 74% | 1011.2 hPa | 0 mm | - | 68 W/m² | - |
| 1778069352 | 5° C | 74% | 1010.8 hPa | 0 mm | - | 39 W/m² | - |
| 1778067840 | 3.89° C | 77% | 1010.6 hPa | 0 mm | - | 31 W/m² | - |
| 1778067539 | 3.89° C | 77% | 1010.4 hPa | 0 mm | - | 29 W/m² | - |
* Rain latest hour (hover to see other rain measurements)
** Current wind speed in m/s (hover to see current wind gust speed)